SPNCB LFMN-EDDH

Flight info

Callsign SPNCB
Flight time 2h 12m
Altitude 15000
Route IRMAR8A IRMAR DCT KINES DCT VANAS DCT MOBLO DCT UBIMA DCT GILIR DCT PENDU DCT UZCUX DCT SOSAD DCT OBOKA DCT BASUM Y850 MUBZI M105 RIBSO RIBSO7A
Aircraft SF50/L-SDGRWY/L

Departure

Time 2026-05-07 21:39
Airport Nice-Côte d'Azur Airport (LFMN)

Arrival

Time 2026-05-07 23:51
Airport Hamburg Helmut Schmidt Airport (EDDH)
Time Latitude Longitude Altitude Speed Heading
2026-05-07 21:12 43.66167 7.20652 21 ft 0 kts 261°
2026-05-07 21:19 43.66167 7.20647 21 ft 0 kts 261°
2026-05-07 21:21 43.66165 7.20644 21 ft 0 kts 210°
2026-05-07 21:21 43.66163 7.20652 21 ft 0 kts 44°
2026-05-07 21:22 43.66162 7.20650 21 ft 0 kts 63°
2026-05-07 21:22 43.66161 7.20650 21 ft 0 kts 63°
2026-05-07 21:22 43.66161 7.20649 21 ft 0 kts 63°
2026-05-07 21:22 43.66164 7.20656 21 ft 2 kts 63°
2026-05-07 21:23 43.66174 7.20673 21 ft 0 kts
2026-05-07 21:23 43.66176 7.20671 21 ft 2 kts 299°
2026-05-07 21:23 43.66169 7.20677 21 ft 0 kts 64°
2026-05-07 21:24 43.66168 7.20677 21 ft 1 kts 74°
2026-05-07 21:24 43.66171 7.20692 21 ft 0 kts 74°
2026-05-07 21:25 43.66172 7.20693 21 ft 0 kts 75°
2026-05-07 21:26 43.66172 7.20695 21 ft 0 kts 76°
2026-05-07 21:26 43.66173 7.20701 21 ft 0 kts 77°
2026-05-07 21:27 43.66174 7.20710 21 ft 0 kts 77°
2026-05-07 21:27 43.66175 7.20711 21 ft 0 kts 77°
2026-05-07 21:27 43.66177 7.20725 21 ft 2 kts 78°
2026-05-07 21:27 43.66182 7.20763 21 ft 5 kts 87°
2026-05-07 21:28 43.66141 7.20790 20 ft 8 kts 172°
2026-05-07 21:28 43.66078 7.20804 19 ft 10 kts 170°
2026-05-07 21:28 43.66005 7.20820 18 ft 11 kts 171°
2026-05-07 21:28 43.65925 7.20838 16 ft 12 kts 170°
2026-05-07 21:29 43.65837 7.20859 14 ft 13 kts 170°
2026-05-07 21:29 43.65747 7.20863 14 ft 13 kts 214°
2026-05-07 21:29 43.65687 7.20782 15 ft 11 kts 224°
2026-05-07 21:29 43.65634 7.20708 14 ft 10 kts 225°
2026-05-07 21:30 43.65579 7.20632 13 ft 11 kts 225°
2026-05-07 21:30 43.65523 7.20555 11 ft 11 kts 224°
2026-05-07 21:30 43.65467 7.20478 11 ft 11 kts 224°
2026-05-07 21:30 43.65413 7.20405 11 ft 10 kts 226°
2026-05-07 21:31 43.65358 7.20327 8 ft 11 kts 225°
2026-05-07 21:31 43.65296 7.20294 8 ft 8 kts 171°
2026-05-07 21:31 43.65258 7.20325 8 ft 4 kts 140°
2026-05-07 21:31 43.65234 7.20355 8 ft 6 kts 136°
2026-05-07 21:32 43.65194 7.20409 8 ft 10 kts 135°
2026-05-07 21:32 43.65132 7.20488 8 ft 14 kts 147°
2026-05-07 21:32 43.65042 7.20506 8 ft 12 kts 195°
2026-05-07 21:32 43.64975 7.20441 8 ft 11 kts 225°
2026-05-07 21:33 43.64923 7.20370 8 ft 10 kts 224°
2026-05-07 21:33 43.64876 7.20305 8 ft 8 kts 224°
2026-05-07 21:33 43.64833 7.20247 8 ft 8 kts 224°
2026-05-07 21:33 43.64791 7.20193 7 ft 8 kts 214°
2026-05-07 21:34 43.64755 7.20182 7 ft 0 kts 170°
2026-05-07 21:37 43.64746 7.20184 7 ft 2 kts 165°
2026-05-07 21:37 43.64728 7.20198 7 ft 3 kts 141°
2026-05-07 21:37 43.64710 7.20234 7 ft 5 kts 110°
2026-05-07 21:38 43.64708 7.20283 7 ft 5 kts 71°
2026-05-07 21:38 43.64724 7.20321 8 ft 0 kts 47°
2026-05-07 21:38 43.64729 7.20328 8 ft 10 kts 47°
2026-05-07 21:38 43.64953 7.20636 8 ft 79 kts 45°
2026-05-07 21:39 43.65470 7.21348 79 ft 122 kts 45°
2026-05-07 21:39 43.66079 7.22221 491 ft 129 kts 47°
2026-05-07 21:39 43.66655 7.23178 978 ft 131 kts 54°
2026-05-07 21:39 43.67176 7.24183 1414 ft 136 kts 53°
2026-05-07 21:40 43.67781 7.25240 1798 ft 145 kts 49°
2026-05-07 21:40 43.68462 7.26291 2225 ft 148 kts 46°
2026-05-07 21:40 43.69126 7.27401 2600 ft 155 kts 65°
2026-05-07 21:40 43.68908 7.28748 2944 ft 161 kts 143°
2026-05-07 21:41 43.67857 7.29349 3255 ft 167 kts 158°
2026-05-07 21:41 43.66846 7.30022 3783 ft 148 kts 152°
2026-05-07 21:41 43.65958 7.30709 4021 ft 165 kts 148°
2026-05-07 21:41 43.64907 7.31631 4288 ft 192 kts 145°
2026-05-07 21:42 43.63755 7.32752 4656 ft 210 kts 143°
2026-05-07 21:42 43.62563 7.34025 5084 ft 223 kts 140°
2026-05-07 21:42 43.61212 7.35073 5619 ft 227 kts 171°
2026-05-07 21:42 43.59779 7.34628 6445 ft 214 kts 213°
2026-05-07 21:43 43.58703 7.33142 6811 ft 226 kts 231°
2026-05-07 21:43 43.57950 7.31193 7039 ft 240 kts 260°
2026-05-07 21:43 43.58068 7.28985 7800 ft 226 kts 291°
2026-05-07 21:43 43.58955 7.27498 8902 ft 198 kts 326°
2026-05-07 21:44 43.60327 7.27041 9126 ft 217 kts
2026-05-07 21:44 43.61779 7.27586 9644 ft 218 kts
2026-05-07 21:44 43.63308 7.27418 10028 ft 224 kts 345°
2026-05-07 21:44 43.64777 7.26880 10649 ft 219 kts 343°
2026-05-07 21:45 43.66131 7.26057 11254 ft 213 kts 320°
2026-05-07 21:45 43.67191 7.24668 11851 ft 209 kts 315°
2026-05-07 21:45 43.68208 7.23267 12427 ft 205 kts 315°
2026-05-07 21:45 43.69206 7.21890 12983 ft 202 kts 315°
2026-05-07 21:46 43.70242 7.20617 13518 ft 200 kts 326°
2026-05-07 21:46 43.71493 7.19792 14046 ft 198 kts 338°
2026-05-07 21:46 43.72784 7.19228 14556 ft 196 kts 341°
2026-05-07 21:46 43.74095 7.18727 15063 ft 194 kts 342°
2026-05-07 21:47 43.75395 7.18245 15559 ft 192 kts 342°
2026-05-07 21:47 43.76669 7.17775 16038 ft 190 kts 342°
2026-05-07 21:47 43.77916 7.17316 16502 ft 188 kts 342°
2026-05-07 21:47 43.79167 7.16855 16961 ft 186 kts 341°
2026-05-07 21:48 43.80410 7.16397 17412 ft 184 kts 341°
2026-05-07 21:48 43.81634 7.15946 17850 ft 182 kts 341°
2026-05-07 21:48 43.82838 7.15502 18275 ft 181 kts 341°
2026-05-07 21:48 43.84047 7.15056 18697 ft 179 kts 341°
2026-05-07 21:49 43.85245 7.14614 19109 ft 177 kts 340°
2026-05-07 21:49 43.86413 7.14183 19505 ft 176 kts 340°
2026-05-07 21:49 43.87590 7.13748 19898 ft 174 kts 340°
2026-05-07 21:49 43.88756 7.13317 20283 ft 173 kts 340°
2026-05-07 21:50 43.89904 7.12892 20656 ft 171 kts 340°
2026-05-07 21:50 43.91052 7.12468 21024 ft 170 kts 339°
2026-05-07 21:50 43.92097 7.12082 21354 ft 169 kts 339°
2026-05-07 21:50 43.93209 7.11670 21700 ft 168 kts 339°
2026-05-07 21:51 43.94301 7.11265 22036 ft 167 kts 339°
2026-05-07 21:51 43.95374 7.10868 22360 ft 165 kts 339°
2026-05-07 21:51 43.96446 7.10471 22680 ft 164 kts 339°
2026-05-07 21:51 43.97535 7.10067 23000 ft 163 kts 338°
2026-05-07 21:52 43.98611 7.09668 23311 ft 162 kts 338°
2026-05-07 21:52 43.99703 7.09263 23622 ft 161 kts 338°
2026-05-07 21:52 44.00769 7.08868 23920 ft 160 kts 338°
2026-05-07 21:52 44.01811 7.08481 24208 ft 160 kts 338°
2026-05-07 21:53 44.02832 7.08101 24486 ft 159 kts 338°
2026-05-07 21:53 44.03860 7.07719 24761 ft 158 kts 338°
2026-05-07 21:53 44.04880 7.07339 24949 ft 162 kts 337°
2026-05-07 21:53 44.05969 7.06930 24975 ft 175 kts 338°
2026-05-07 21:54 44.07143 7.06492 24977 ft 188 kts 338°
2026-05-07 21:54 44.08423 7.06016 24977 ft 201 kts 339°
2026-05-07 21:54 44.09765 7.05517 24975 ft 212 kts 339°
2026-05-07 21:54 44.11064 7.05034 24981 ft 221 kts 339°
2026-05-07 21:55 44.12521 7.04491 24981 ft 230 kts 339°
2026-05-07 21:55 44.13761 7.04029 24980 ft 236 kts 339°
2026-05-07 21:55 44.15358 7.03432 24980 ft 243 kts 339°
2026-05-07 21:55 44.17016 7.02812 24979 ft 250 kts 339°
2026-05-07 21:56 44.18686 7.02189 24979 ft 255 kts 339°
2026-05-07 21:56 44.20416 7.01543 24978 ft 259 kts 339°
2026-05-07 21:56 44.22164 7.00889 24978 ft 263 kts 339°
2026-05-07 21:56 44.23941 7.00225 24977 ft 265 kts 340°
2026-05-07 21:57 44.25727 6.99557 24977 ft 268 kts 340°
2026-05-07 21:57 44.27535 6.98880 24977 ft 270 kts 339°
2026-05-07 21:57 44.29351 6.98199 24977 ft 271 kts 339°
2026-05-07 21:57 44.31177 6.97514 24976 ft 272 kts 339°
2026-05-07 21:58 44.32998 6.96831 24976 ft 273 kts 339°
2026-05-07 21:58 44.33772 6.96541 24976 ft 274 kts 339°
2026-05-07 21:59 44.34700 6.96192 24976 ft 274 kts 339°
2026-05-07 21:59 44.36546 6.95499 24975 ft 274 kts 339°
2026-05-07 21:59 44.38372 6.94812 24975 ft 275 kts 339°
2026-05-07 21:59 44.40225 6.94115 24975 ft 275 kts 339°
2026-05-07 22:00 44.42072 6.93419 24974 ft 275 kts 339°
2026-05-07 22:00 44.43845 6.92752 24974 ft 276 kts 339°
2026-05-07 22:00 44.45718 6.92046 24974 ft 276 kts 339°
2026-05-07 22:00 44.47562 6.91350 24974 ft 276 kts 339°
2026-05-07 22:01 44.49397 6.90658 24973 ft 276 kts 339°
2026-05-07 22:01 44.51128 6.90004 24973 ft 276 kts 339°
2026-05-07 22:01 44.53032 6.89284 24973 ft 276 kts 339°
2026-05-07 22:01 44.54884 6.88584 24973 ft 276 kts 339°
2026-05-07 22:02 44.56737 6.87882 24973 ft 276 kts 339°
2026-05-07 22:02 44.58573 6.87187 24972 ft 276 kts 339°
2026-05-07 22:02 44.60423 6.86486 24972 ft 276 kts 339°
2026-05-07 22:02 44.62289 6.85778 24972 ft 276 kts 339°
2026-05-07 22:03 44.64144 6.85074 24972 ft 276 kts 339°
2026-05-07 22:03 44.65993 6.84372 24971 ft 276 kts 339°
2026-05-07 22:03 44.67834 6.83673 24971 ft 276 kts 339°
2026-05-07 22:03 44.69678 6.82972 24971 ft 276 kts 339°
2026-05-07 22:04 44.71535 6.82265 24971 ft 276 kts 339°
2026-05-07 22:04 44.73392 6.81558 24971 ft 276 kts 339°
2026-05-07 22:04 44.75236 6.80856 24971 ft 276 kts 339°
2026-05-07 22:04 44.77078 6.80153 24970 ft 276 kts 339°
2026-05-07 22:05 44.78938 6.79443 24970 ft 276 kts 340°
2026-05-07 22:05 44.80848 6.79062 24971 ft 281 kts 349°
2026-05-07 22:05 44.82829 6.78880 24970 ft 282 kts 350°
2026-05-07 22:05 44.84775 6.78736 24970 ft 282 kts 350°
2026-05-07 22:06 44.86732 6.78601 24969 ft 282 kts 350°
2026-05-07 22:06 44.88695 6.78469 24969 ft 282 kts 351°
2026-05-07 22:06 44.90629 6.78341 24969 ft 282 kts 350°
2026-05-07 22:06 44.92587 6.78212 24969 ft 282 kts 351°
2026-05-07 22:07 44.94546 6.78083 24969 ft 282 kts 351°
2026-05-07 22:07 44.96524 6.77952 24968 ft 282 kts 350°
2026-05-07 22:07 44.98457 6.77825 24968 ft 282 kts 350°
2026-05-07 22:07 45.00423 6.77695 24968 ft 283 kts 350°
2026-05-07 22:08 45.02401 6.77564 24968 ft 284 kts 350°
2026-05-07 22:08 45.04382 6.77433 24969 ft 286 kts 350°
2026-05-07 22:08 45.06387 6.77300 24969 ft 288 kts 351°
2026-05-07 22:08 45.08386 6.77167 24970 ft 290 kts 351°
2026-05-07 22:09 45.10410 6.77033 24971 ft 292 kts 351°
2026-05-07 22:09 45.12436 6.76898 24973 ft 295 kts 351°
2026-05-07 22:09 45.14483 6.76763 24974 ft 297 kts 351°
2026-05-07 22:09 45.16570 6.76625 24974 ft 299 kts 351°
2026-05-07 22:10 45.18645 6.76487 24974 ft 300 kts 351°
2026-05-07 22:10 45.20725 6.76349 24974 ft 301 kts 351°
2026-05-07 22:10 45.22796 6.76212 24974 ft 302 kts 351°
2026-05-07 22:10 45.24904 6.76071 24973 ft 303 kts 351°
2026-05-07 22:11 45.27032 6.75930 24973 ft 304 kts 351°
2026-05-07 22:11 45.29126 6.75790 24973 ft 305 kts 351°
2026-05-07 22:11 45.31266 6.75647 24973 ft 305 kts 351°
2026-05-07 22:11 45.33371 6.75507 24973 ft 306 kts 351°
2026-05-07 22:12 45.35488 6.75365 24973 ft 306 kts 351°
2026-05-07 22:12 45.37609 6.75224 24973 ft 306 kts 351°
2026-05-07 22:12 45.39746 6.75081 24973 ft 306 kts 351°
2026-05-07 22:12 45.41866 6.74939 24973 ft 307 kts 351°
2026-05-07 22:13 45.44021 6.74794 24973 ft 307 kts 351°
2026-05-07 22:13 45.46133 6.74652 24974 ft 307 kts 351°
2026-05-07 22:13 45.48268 6.74507 24978 ft 307 kts 351°
2026-05-07 22:13 45.50403 6.74361 24981 ft 307 kts 351°
2026-05-07 22:14 45.52542 6.74215 24985 ft 307 kts 351°
2026-05-07 22:14 45.54669 6.74069 24988 ft 307 kts 351°
2026-05-07 22:14 45.56800 6.73923 24992 ft 307 kts 351°
2026-05-07 22:14 45.58914 6.73779 24995 ft 307 kts 351°
2026-05-07 22:15 45.61063 6.73631 24999 ft 307 kts 351°
2026-05-07 22:15 45.63193 6.73485 24999 ft 307 kts 351°
2026-05-07 22:15 45.65311 6.73340 24999 ft 307 kts 351°
2026-05-07 22:15 45.67452 6.73193 24999 ft 307 kts 351°
2026-05-07 22:16 45.69569 6.73047 24999 ft 307 kts 351°
2026-05-07 22:16 45.71709 6.72900 24999 ft 307 kts 351°
2026-05-07 22:16 45.73833 6.72754 24999 ft 307 kts 351°
2026-05-07 22:16 45.75954 6.72607 24999 ft 307 kts 351°
2026-05-07 22:17 45.78112 6.72459 24999 ft 307 kts 351°
2026-05-07 22:17 45.80254 6.72311 24999 ft 307 kts 351°
2026-05-07 22:17 45.82406 6.72164 24999 ft 307 kts 351°
2026-05-07 22:17 45.84542 6.72020 24998 ft 307 kts 351°
2026-05-07 22:18 45.86679 6.71875 24998 ft 307 kts 351°
2026-05-07 22:18 45.90947 6.71585 24998 ft 307 kts 351°
2026-05-07 22:18 45.93105 6.71438 24998 ft 307 kts 351°
2026-05-07 22:19 45.95256 6.71292 24998 ft 307 kts 351°
2026-05-07 22:19 45.97411 6.71145 24998 ft 307 kts 351°
2026-05-07 22:19 45.99522 6.71001 24998 ft 307 kts 351°
2026-05-07 22:19 46.01648 6.70857 24998 ft 307 kts 351°
2026-05-07 22:20 46.03800 6.70710 24998 ft 307 kts 351°
2026-05-07 22:20 46.05921 6.70565 24998 ft 307 kts 351°
2026-05-07 22:20 46.08070 6.70418 24998 ft 307 kts 351°
2026-05-07 22:20 46.10204 6.70272 24998 ft 307 kts 351°
2026-05-07 22:21 46.12308 6.70010 24994 ft 302 kts 342°
2026-05-07 22:21 46.14338 6.69210 25001 ft 300 kts 338°
2026-05-07 22:21 46.16314 6.68300 25000 ft 299 kts 337°
2026-05-07 22:21 46.18284 6.67360 25000 ft 299 kts 336°
2026-05-07 22:22 46.20285 6.66395 25000 ft 299 kts 336°
2026-05-07 22:22 46.22255 6.65440 25000 ft 299 kts 336°
2026-05-07 22:22 46.24223 6.64484 25000 ft 299 kts 336°
2026-05-07 22:22 46.26187 6.63529 24999 ft 300 kts 336°
2026-05-07 22:23 46.28177 6.62560 24999 ft 300 kts 336°
2026-05-07 22:23 46.30124 6.61612 24999 ft 300 kts 336°
2026-05-07 22:23 46.32111 6.60643 24999 ft 300 kts 336°
2026-05-07 22:23 46.34096 6.59674 24999 ft 300 kts 336°
2026-05-07 22:24 46.36071 6.58710 24999 ft 300 kts 336°
2026-05-07 22:24 46.38031 6.57752 24999 ft 300 kts 336°
2026-05-07 22:24 46.40007 6.56786 24999 ft 300 kts 336°
2026-05-07 22:24 46.41082 6.56259 24999 ft 300 kts 336°
2026-05-07 22:25 46.43058 6.55292 24999 ft 300 kts 336°
2026-05-07 22:25 46.44902 6.54389 24998 ft 300 kts 336°
2026-05-07 22:26 46.46357 6.53675 24998 ft 299 kts 336°
2026-05-07 22:26 46.48339 6.52703 24998 ft 299 kts 336°
2026-05-07 22:26 46.50299 6.51740 24998 ft 299 kts 336°
2026-05-07 22:26 46.52268 6.50772 24998 ft 299 kts 336°
2026-05-07 22:27 46.54240 6.49803 24998 ft 299 kts 336°
2026-05-07 22:27 46.56205 6.48836 24998 ft 299 kts 336°
2026-05-07 22:27 46.58170 6.47868 24998 ft 299 kts 336°
2026-05-07 22:27 46.60159 6.46887 24998 ft 299 kts 336°
2026-05-07 22:28 46.62123 6.45918 24997 ft 299 kts 336°
2026-05-07 22:28 46.64083 6.44951 24997 ft 297 kts 336°
2026-05-07 22:28 46.66054 6.43977 24997 ft 297 kts 336°
2026-05-07 22:28 46.68020 6.43005 24997 ft 298 kts 336°
2026-05-07 22:29 46.69980 6.42035 24997 ft 298 kts 336°
2026-05-07 22:29 46.71934 6.41067 24997 ft 298 kts 336°
2026-05-07 22:29 46.73882 6.40102 24997 ft 298 kts 336°
2026-05-07 22:29 46.75861 6.39121 24997 ft 298 kts 336°
2026-05-07 22:30 46.77820 6.38148 24997 ft 299 kts 336°
2026-05-07 22:30 46.79793 6.37168 24997 ft 299 kts 336°
2026-05-07 22:30 46.81746 6.36197 24996 ft 299 kts 336°
2026-05-07 22:30 46.83707 6.35221 24996 ft 299 kts 336°
2026-05-07 22:31 46.85668 6.34245 25002 ft 299 kts 336°
2026-05-07 22:31 46.87648 6.33258 25002 ft 299 kts 336°
2026-05-07 22:31 46.89628 6.32272 25002 ft 299 kts 335°
2026-05-07 22:31 46.91590 6.31294 25002 ft 299 kts 335°
2026-05-07 22:32 46.93554 6.30313 25002 ft 299 kts 334°
2026-05-07 22:32 46.95547 6.29317 25002 ft 299 kts 334°
2026-05-07 22:32 46.97506 6.28338 25002 ft 299 kts 334°
2026-05-07 22:32 46.99451 6.27364 25002 ft 298 kts 333°
2026-05-07 22:33 47.01413 6.26381 25002 ft 298 kts 333°
2026-05-07 22:33 47.03377 6.25397 25002 ft 297 kts 333°
2026-05-07 22:33 47.05327 6.24418 25002 ft 297 kts 332°
2026-05-07 22:33 47.07206 6.23235 25003 ft 292 kts 327°
2026-05-07 22:34 47.09035 6.21951 25002 ft 291 kts 326°
2026-05-07 22:34 47.10852 6.20653 25003 ft 291 kts 326°
2026-05-07 22:34 47.12682 6.19339 25003 ft 291 kts 326°
2026-05-07 22:34 47.14492 6.18034 25003 ft 291 kts 326°
2026-05-07 22:35 47.16304 6.16727 25003 ft 291 kts 326°
2026-05-07 22:35 47.18119 6.15417 25003 ft 291 kts 326°
2026-05-07 22:35 47.19939 6.14102 25003 ft 290 kts 326°
2026-05-07 22:35 47.21740 6.12799 25003 ft 290 kts 326°
2026-05-07 22:36 47.23554 6.11486 25003 ft 290 kts 326°
2026-05-07 22:36 47.25357 6.10180 25002 ft 290 kts 326°
2026-05-07 22:36 47.27163 6.08871 25002 ft 290 kts 326°
2026-05-07 22:36 47.28971 6.07559 25002 ft 290 kts 326°
2026-05-07 22:37 47.30794 6.06236 25002 ft 290 kts 326°
2026-05-07 22:37 47.32597 6.04926 25002 ft 290 kts 326°
2026-05-07 22:37 47.34593 6.04153 24998 ft 309 kts 348°
2026-05-07 22:37 47.36771 6.04433 25001 ft 320 kts
2026-05-07 22:38 47.38931 6.05177 25001 ft 325 kts
2026-05-07 22:38 47.41121 6.06089 25002 ft 326 kts
2026-05-07 22:38 47.43295 6.07046 25000 ft 326 kts
2026-05-07 22:38 47.45472 6.08020 25002 ft 326 kts
2026-05-07 22:39 47.47641 6.08997 25002 ft 327 kts
2026-05-07 22:39 47.49828 6.09983 25003 ft 327 kts
2026-05-07 22:39 47.51990 6.10959 24938 ft 329 kts
2026-05-07 22:39 47.54177 6.11944 24849 ft 331 kts
2026-05-07 22:40 47.56377 6.12933 24896 ft 328 kts
2026-05-07 22:40 47.58474 6.13887 25040 ft 298 kts
2026-05-07 22:40 47.60348 6.14818 24900 ft 276 kts
2026-05-07 22:40 47.62134 6.15693 24430 ft 269 kts
2026-05-07 22:41 47.63897 6.16503 23918 ft 263 kts
2026-05-07 22:41 47.65630 6.17243 23428 ft 257 kts
2026-05-07 22:41 47.67332 6.17914 22944 ft 255 kts
2026-05-07 22:41 47.68999 6.18744 22512 ft 255 kts 11°
2026-05-07 22:42 47.70629 6.19741 22079 ft 245 kts
2026-05-07 22:42 47.72216 6.20356 21899 ft 228 kts
2026-05-07 22:42 47.73710 6.20943 21724 ft 217 kts
2026-05-07 22:42 47.75134 6.21566 21518 ft 210 kts
2026-05-07 22:43 47.76510 6.22256 21267 ft 207 kts
2026-05-07 22:43 47.77841 6.23109 21130 ft 195 kts
2026-05-07 22:43 47.78948 6.23568 21369 ft 172 kts 355°
2026-05-07 22:43 47.80260 6.23978 21125 ft 212 kts
2026-05-07 22:44 47.81789 6.24566 20970 ft 242 kts
2026-05-07 22:44 47.83484 6.25292 20869 ft 264 kts
2026-05-07 22:44 47.85286 6.26101 20806 ft 280 kts
2026-05-07 22:44 47.87204 6.26977 20769 ft 292 kts
2026-05-07 22:45 47.89167 6.27880 20801 ft 299 kts
2026-05-07 22:45 47.91158 6.28798 20788 ft 306 kts
2026-05-07 22:45 47.93211 6.29740 20802 ft 311 kts
2026-05-07 22:45 48.01223 6.33542 23088 ft 300 kts
2026-05-07 22:46 48.11718 6.38489 24836 ft 316 kts
2026-05-07 22:46 48.13844 6.39586 24425 ft 333 kts 11°
2026-05-07 22:46 48.17983 6.41853 24079 ft 344 kts
2026-05-07 22:46 48.20320 6.42538 23836 ft 346 kts
2026-05-07 22:47 48.22633 6.43437 23905 ft 342 kts
2026-05-07 22:47 48.45161 6.54086 25569 ft 335 kts
2026-05-07 22:47 48.47494 6.55097 24703 ft 356 kts
2026-05-07 22:47 48.49773 6.56094 25051 ft 342 kts
2026-05-07 22:48 48.52032 6.57121 25035 ft 340 kts
2026-05-07 22:48 48.54275 6.58166 25033 ft 338 kts
2026-05-07 22:48 48.56541 6.59231 25033 ft 336 kts
2026-05-07 22:48 48.58762 6.60278 25033 ft 335 kts
2026-05-07 22:49 48.60952 6.61312 25033 ft 333 kts
2026-05-07 22:49 48.63158 6.62354 25033 ft 332 kts
2026-05-07 22:49 48.65375 6.63403 25033 ft 332 kts
2026-05-07 22:49 48.67547 6.64431 25033 ft 331 kts
2026-05-07 22:50 48.69766 6.65483 25027 ft 330 kts
2026-05-07 22:50 48.71962 6.66525 25025 ft 330 kts
2026-05-07 22:50 48.74139 6.67558 25024 ft 329 kts
2026-05-07 22:50 48.76316 6.68593 25025 ft 329 kts
2026-05-07 22:51 48.78507 6.69635 25025 ft 328 kts
2026-05-07 22:51 48.80669 6.70665 25025 ft 328 kts
2026-05-07 22:51 48.82853 6.71706 25025 ft 328 kts
2026-05-07 22:51 48.85036 6.72747 25025 ft 327 kts
2026-05-07 22:52 48.87183 6.73772 25025 ft 327 kts
2026-05-07 22:52 48.89352 6.74809 25025 ft 327 kts
2026-05-07 22:52 48.91537 6.75854 25025 ft 327 kts
2026-05-07 22:52 48.93704 6.76891 25025 ft 327 kts
2026-05-07 22:53 48.95868 6.77928 25025 ft 327 kts
2026-05-07 22:53 48.98032 6.78967 25025 ft 327 kts
2026-05-07 22:53 49.00210 6.80012 25025 ft 327 kts
2026-05-07 22:53 49.02374 6.81052 25025 ft 328 kts
2026-05-07 22:54 49.04527 6.82088 25026 ft 328 kts
2026-05-07 22:54 49.06730 6.83148 25026 ft 329 kts
2026-05-07 22:54 49.08886 6.84187 25026 ft 330 kts
2026-05-07 22:54 49.11091 6.85250 25026 ft 331 kts
2026-05-07 22:55 49.19894 6.89505 25030 ft 332 kts
2026-05-07 22:55 49.29567 6.94208 25033 ft 333 kts
2026-05-07 22:55 49.32695 6.95351 25035 ft 321 kts 355°
2026-05-07 22:55 49.34930 6.95770 25028 ft 323 kts 357°
2026-05-07 22:56 49.37140 6.96283 25028 ft 325 kts 358°
2026-05-07 22:56 49.39381 6.96853 25028 ft 326 kts 359°
2026-05-07 22:56 49.67713 7.04425 25055 ft 326 kts 359°
2026-05-07 22:56 50.00018 7.13156 25060 ft 326 kts 359°
2026-05-07 22:57 50.15816 7.17493 25039 ft 326 kts 359°
2026-05-07 22:57 50.37801 7.23557 25041 ft 326 kts 359°
2026-05-07 22:57 50.40044 7.24176 25031 ft 326 kts 359°
2026-05-07 22:57 50.42255 7.24789 25033 ft 326 kts 359°
2026-05-07 22:58 50.44487 7.25409 25036 ft 326 kts 359°
2026-05-07 22:58 50.46724 7.26031 25040 ft 325 kts 359°
2026-05-07 22:58 50.48949 7.26650 25044 ft 325 kts 359°
2026-05-07 22:58 50.51144 7.27262 25048 ft 325 kts 359°
2026-05-07 22:59 50.53387 7.27887 25051 ft 325 kts 359°
2026-05-07 22:59 50.55604 7.28506 25055 ft 325 kts 359°
2026-05-07 22:59 50.57818 7.29124 25058 ft 325 kts 359°
2026-05-07 22:59 50.60026 7.29741 25058 ft 325 kts 359°
2026-05-07 23:00 50.62233 7.30359 25058 ft 325 kts 359°
2026-05-07 23:00 50.64471 7.30986 25058 ft 325 kts 359°
2026-05-07 23:00 50.66686 7.31607 25058 ft 325 kts 359°
2026-05-07 23:00 50.68899 7.32228 25058 ft 325 kts 359°
2026-05-07 23:01 50.71118 7.32852 25058 ft 325 kts 359°
2026-05-07 23:01 50.73340 7.33477 25057 ft 326 kts 360°
2026-05-07 23:01 50.75535 7.34598 25059 ft 337 kts 11°
2026-05-07 23:01 50.77705 7.36011 25058 ft 339 kts 12°
2026-05-07 23:02 50.79872 7.37477 25059 ft 339 kts 12°
2026-05-07 23:02 50.82037 7.38953 25059 ft 339 kts 13°
2026-05-07 23:02 50.84208 7.40437 25059 ft 339 kts 13°
2026-05-07 23:02 50.86356 7.41908 25059 ft 339 kts 13°
2026-05-07 23:03 50.88512 7.43386 25059 ft 339 kts 13°
2026-05-07 23:03 50.90699 7.44887 25059 ft 340 kts 12°
2026-05-07 23:03 50.92843 7.46360 25058 ft 340 kts 12°
2026-05-07 23:03 50.95023 7.47859 25058 ft 341 kts 12°
2026-05-07 23:04 50.97204 7.49360 25058 ft 342 kts 12°
2026-05-07 23:04 50.99372 7.50853 25059 ft 343 kts 12°
2026-05-07 23:04 51.01572 7.52370 25060 ft 344 kts 11°
2026-05-07 23:04 51.03757 7.53879 25061 ft 345 kts 11°
2026-05-07 23:05 51.05960 7.55401 25063 ft 347 kts 11°
2026-05-07 23:05 51.08162 7.56923 25063 ft 348 kts 11°
2026-05-07 23:05 51.10371 7.58453 25063 ft 348 kts 11°
2026-05-07 23:05 51.12603 7.60001 25062 ft 349 kts 11°
2026-05-07 23:06 51.14823 7.61542 25062 ft 350 kts 11°
2026-05-07 23:06 51.17054 7.63091 25062 ft 350 kts 11°
2026-05-07 23:06 51.19270 7.64633 25062 ft 351 kts 11°
2026-05-07 23:06 51.21509 7.66191 25052 ft 351 kts 12°
2026-05-07 23:07 51.23740 7.67747 25051 ft 351 kts 12°
2026-05-07 23:07 51.25980 7.69310 25051 ft 351 kts 12°
2026-05-07 23:07 51.28227 7.70879 25051 ft 350 kts 12°
2026-05-07 23:07 51.30445 7.72430 25051 ft 350 kts 12°
2026-05-07 23:08 51.32687 7.74000 25052 ft 350 kts 12°
2026-05-07 23:08 51.34936 7.75575 25052 ft 350 kts 12°
2026-05-07 23:08 51.37153 7.77130 25052 ft 350 kts 12°
2026-05-07 23:08 51.39386 7.78698 25052 ft 350 kts 12°
2026-05-07 23:09 51.41634 7.80278 25053 ft 350 kts 12°
2026-05-07 23:09 51.43850 7.81837 25051 ft 350 kts 12°
2026-05-07 23:09 51.46089 7.83415 25051 ft 350 kts 12°
2026-05-07 23:09 51.48317 7.84986 25051 ft 350 kts 12°
2026-05-07 23:10 51.50556 7.86566 25051 ft 350 kts 12°
2026-05-07 23:10 51.52783 7.88140 25051 ft 351 kts 12°
2026-05-07 23:10 51.81079 8.08285 25060 ft 351 kts 12°
2026-05-07 23:10 52.16621 8.33985 25071 ft 351 kts 12°
2026-05-07 23:11 52.39055 8.50440 25119 ft 352 kts 12°
2026-05-07 23:11 52.43534 8.53748 25096 ft 352 kts 12°
2026-05-07 23:11 52.50922 8.59221 25119 ft 353 kts 12°
2026-05-07 23:11 52.53168 8.60888 25117 ft 353 kts 12°
2026-05-07 23:12 52.55401 8.62548 25116 ft 353 kts 12°
2026-05-07 23:12 52.72277 8.75150 25083 ft 353 kts 13°
2026-05-07 23:12 52.74500 8.76820 25104 ft 352 kts 13°
2026-05-07 23:12 52.76740 8.78292 25093 ft 336 kts 360°
2026-05-07 23:13 52.79012 8.78702 25109 ft 323 kts 349°
2026-05-07 23:13 52.81220 8.78782 25107 ft 321 kts 347°
2026-05-07 23:13 52.83467 8.78801 25106 ft 320 kts 347°
2026-05-07 23:13 52.85675 8.78803 25101 ft 320 kts 347°
2026-05-07 23:14 52.87911 8.78788 25096 ft 320 kts 347°
2026-05-07 23:14 52.90125 8.78753 25013 ft 322 kts 346°
2026-05-07 23:14 52.92370 8.78691 24850 ft 326 kts 346°
2026-05-07 23:14 52.94655 8.78598 24665 ft 330 kts 346°
2026-05-07 23:15 52.96960 8.78475 24463 ft 333 kts 346°
2026-05-07 23:15 52.99234 8.78343 24257 ft 315 kts 346°
2026-05-07 23:15 53.01338 8.78264 24044 ft 293 kts 346°
2026-05-07 23:15 53.03299 8.78225 23834 ft 276 kts 346°
2026-05-07 23:16 53.05180 8.78216 23625 ft 263 kts 346°
2026-05-07 23:16 53.06953 8.78218 23410 ft 252 kts 346°
2026-05-07 23:16 53.08676 8.78343 23215 ft 254 kts 357°
2026-05-07 23:16 53.10368 8.79236 23045 ft 257 kts 11°
2026-05-07 23:17 53.11975 8.80568 22735 ft 264 kts 21°
2026-05-07 23:17 53.13539 8.82113 22526 ft 259 kts 21°
2026-05-07 23:17 53.15074 8.83633 22319 ft 255 kts 21°
2026-05-07 23:17 53.16618 8.84897 22127 ft 243 kts
2026-05-07 23:18 53.18205 8.85873 21922 ft 240 kts
2026-05-07 23:18 53.19744 8.86824 21719 ft 237 kts
2026-05-07 23:18 53.21296 8.87745 21513 ft 234 kts
2026-05-07 23:18 53.22811 8.88215 21311 ft 208 kts 337°
2026-05-07 23:19 53.24123 8.87510 21120 ft 194 kts 324°
2026-05-07 23:19 53.25394 8.86780 20871 ft 195 kts 332°
2026-05-07 23:19 53.26759 8.86439 20566 ft 205 kts 342°
2026-05-07 23:19 53.28197 8.86396 20240 ft 211 kts 349°
2026-05-07 23:20 53.29685 8.86529 19910 ft 215 kts 352°
2026-05-07 23:20 53.31178 8.86764 19583 ft 217 kts 354°
2026-05-07 23:20 53.32676 8.87053 19257 ft 219 kts 356°
2026-05-07 23:20 53.34204 8.87412 18923 ft 224 kts
2026-05-07 23:21 53.35677 8.88247 18603 ft 229 kts 12°
2026-05-07 23:21 53.37173 8.89249 18273 ft 230 kts 14°
2026-05-07 23:21 53.38644 8.90267 17946 ft 230 kts 15°
2026-05-07 23:21 53.40095 8.91284 17624 ft 230 kts 15°
2026-05-07 23:22 53.41566 8.92322 17297 ft 229 kts 15°
2026-05-07 23:22 53.43051 8.93374 16966 ft 229 kts 16°
2026-05-07 23:22 53.44498 8.94401 16644 ft 228 kts 16°
2026-05-07 23:22 53.45957 8.95438 16315 ft 225 kts 17°
2026-05-07 23:23 53.47387 8.96455 15990 ft 224 kts 17°
2026-05-07 23:23 53.48800 8.97461 15666 ft 222 kts 17°
2026-05-07 23:23 53.50211 8.98466 15341 ft 220 kts 17°
2026-05-07 23:23 53.51614 8.99466 15016 ft 219 kts 18°
2026-05-07 23:24 53.53012 9.00462 14690 ft 218 kts 18°
2026-05-07 23:24 53.54340 9.01758 14362 ft 219 kts 30°
2026-05-07 23:24 53.55601 9.03203 14036 ft 219 kts 32°
2026-05-07 23:24 53.56833 9.04649 13714 ft 218 kts 32°
2026-05-07 23:25 53.58061 9.06104 13389 ft 215 kts 33°
2026-05-07 23:25 53.59274 9.07547 13063 ft 212 kts 33°
2026-05-07 23:25 53.60466 9.08970 12738 ft 209 kts 33°
2026-05-07 23:25 53.61646 9.10380 12413 ft 207 kts 33°
2026-05-07 23:26 53.62814 9.11778 12088 ft 205 kts 34°
2026-05-07 23:26 53.63959 9.13151 11767 ft 203 kts 33°
2026-05-07 23:26 53.65110 9.14532 11442 ft 202 kts 33°
2026-05-07 23:26 53.66238 9.15882 11120 ft 200 kts 35°
2026-05-07 23:27 53.68496 9.18593 10472 ft 198 kts 36°
2026-05-07 23:27 53.69616 9.19943 10147 ft 197 kts 36°
2026-05-07 23:27 53.70731 9.21285 9822 ft 196 kts 37°
2026-05-07 23:28 53.71833 9.22612 9499 ft 195 kts 37°
2026-05-07 23:28 53.72919 9.23921 9179 ft 193 kts 37°
2026-05-07 23:28 53.74015 9.25242 8854 ft 192 kts 37°
2026-05-07 23:28 53.75089 9.26537 8534 ft 191 kts 37°
2026-05-07 23:29 53.76167 9.27839 8210 ft 190 kts 38°
2026-05-07 23:29 53.77246 9.29142 7884 ft 189 kts 38°
2026-05-07 23:29 53.78301 9.30417 7562 ft 187 kts 38°
2026-05-07 23:29 53.79364 9.31702 7236 ft 186 kts 38°
2026-05-07 23:30 53.80227 9.33239 6907 ft 178 kts 71°
2026-05-07 23:30 53.80430 9.35213 6592 ft 171 kts 94°
2026-05-07 23:30 53.80239 9.37161 6267 ft 166 kts 110°
2026-05-07 23:30 53.79847 9.38988 5942 ft 164 kts 115°
2026-05-07 23:31 53.79389 9.40761 5632 ft 169 kts 117°
2026-05-07 23:31 53.78894 9.42582 5457 ft 169 kts 117°
2026-05-07 23:31 53.78402 9.44356 5286 ft 169 kts 117°
2026-05-07 23:31 53.77879 9.46178 5110 ft 172 kts 119°
2026-05-07 23:32 53.77164 9.47816 4988 ft 174 kts 137°
2026-05-07 23:32 53.76172 9.48947 4846 ft 179 kts 157°
2026-05-07 23:32 53.74913 9.49105 4781 ft 189 kts 191°
2026-05-07 23:32 53.73817 9.47871 4799 ft 193 kts 217°
2026-05-07 23:33 53.72805 9.46523 4862 ft 180 kts 212°
2026-05-07 23:33 53.71768 9.45302 4681 ft 186 kts 211°
2026-05-07 23:33 53.70668 9.44025 4531 ft 193 kts 211°
2026-05-07 23:33 53.69546 9.42769 4428 ft 195 kts 211°
2026-05-07 23:34 53.68356 9.41772 4389 ft 190 kts 185°
2026-05-07 23:34 53.67123 9.42283 4197 ft 194 kts 144°
2026-05-07 23:34 53.65979 9.43514 4173 ft 190 kts 151°
2026-05-07 23:34 53.64819 9.44493 4183 ft 181 kts 152°
2026-05-07 23:35 53.63723 9.45419 4155 ft 176 kts 155°
2026-05-07 23:35 53.62567 9.46206 3964 ft 183 kts 159°
2026-05-07 23:35 53.61309 9.46794 3991 ft 187 kts 163°
2026-05-07 23:35 53.60095 9.47398 4109 ft 179 kts 162°
2026-05-07 23:36 53.58913 9.47985 4225 ft 174 kts 162°
2026-05-07 23:36 53.57733 9.48426 4196 ft 178 kts 168°
2026-05-07 23:36 53.56510 9.48797 4196 ft 178 kts 167°
2026-05-07 23:36 53.55299 9.49209 4210 ft 179 kts 168°
2026-05-07 23:37 53.54033 9.49470 4090 ft 185 kts 172°
2026-05-07 23:37 53.52800 9.49821 4189 ft 178 kts 161°
2026-05-07 23:37 53.51627 9.50534 4101 ft 183 kts 158°
2026-05-07 23:37 53.50393 9.50890 4198 ft 179 kts 197°
2026-05-07 23:38 53.49530 9.49467 4231 ft 185 kts 232°
2026-05-07 23:38 53.48736 9.47632 4135 ft 189 kts 230°
2026-05-07 23:38 53.47960 9.45890 4158 ft 188 kts 228°
2026-05-07 23:38 53.47083 9.44213 4115 ft 190 kts 224°
2026-05-07 23:39 53.46193 9.42564 4099 ft 191 kts 226°
2026-05-07 23:39 53.45358 9.40860 4120 ft 190 kts 230°
2026-05-07 23:39 53.44565 9.39059 4159 ft 185 kts 230°
2026-05-07 23:39 53.43791 9.37338 4154 ft 186 kts 229°
2026-05-07 23:40 53.42992 9.35614 4105 ft 189 kts 229°
2026-05-07 23:40 53.42135 9.33937 4185 ft 184 kts 216°
2026-05-07 23:40 53.41020 9.33227 4346 ft 172 kts 176°
2026-05-07 23:40 53.39883 9.34019 4044 ft 189 kts 139°
2026-05-07 23:41 53.38952 9.35598 4025 ft 189 kts 133°
2026-05-07 23:41 53.38096 9.37272 4017 ft 187 kts 129°
2026-05-07 23:41 53.37312 9.38931 3925 ft 181 kts 128°
2026-05-07 23:41 53.36552 9.40610 3838 ft 176 kts 127°
2026-05-07 23:42 53.35998 9.42389 3812 ft 170 kts 106°
2026-05-07 23:42 53.36019 9.44346 3732 ft 173 kts 72°
2026-05-07 23:42 53.36721 9.46080 3433 ft 185 kts 51°
2026-05-07 23:42 53.37580 9.47677 3283 ft 185 kts 47°
2026-05-07 23:43 53.38533 9.49135 3110 ft 186 kts 45°
2026-05-07 23:43 53.39433 9.50649 3042 ft 181 kts 49°
2026-05-07 23:43 53.40287 9.52227 2893 ft 181 kts 50°
2026-05-07 23:43 53.41135 9.53784 2706 ft 184 kts 48°
2026-05-07 23:44 53.42014 9.55372 2561 ft 183 kts 52°
2026-05-07 23:44 53.42806 9.56982 2491 ft 179 kts 51°
2026-05-07 23:44 53.43608 9.58550 2372 ft 178 kts 51°
2026-05-07 23:44 53.44395 9.60199 2229 ft 179 kts 52°
2026-05-07 23:45 53.45179 9.61805 2100 ft 179 kts 51°
2026-05-07 23:45 53.45978 9.63397 2040 ft 174 kts 53°
2026-05-07 23:45 53.46685 9.65040 1981 ft 171 kts 56°
2026-05-07 23:45 53.47385 9.66687 1979 ft 176 kts 57°
2026-05-07 23:46 53.48122 9.68377 1920 ft 186 kts 53°
2026-05-07 23:46 53.48980 9.70050 1954 ft 187 kts 50°
2026-05-07 23:46 53.49849 9.71687 1978 ft 190 kts 50°
2026-05-07 23:46 53.50744 9.73354 1980 ft 192 kts 50°
2026-05-07 23:47 53.51653 9.75030 1980 ft 194 kts 49°
2026-05-07 23:47 53.52557 9.76737 1978 ft 195 kts 54°
2026-05-07 23:47 53.53175 9.78746 1935 ft 196 kts 73°
2026-05-07 23:47 53.53643 9.80868 2097 ft 189 kts 61°
2026-05-07 23:48 53.54485 9.82571 2168 ft 190 kts 41°
2026-05-07 23:48 53.55570 9.83885 2036 ft 199 kts 47°
2026-05-07 23:48 53.56444 9.85673 1867 ft 186 kts 52°
2026-05-07 23:48 53.57194 9.87052 1917 ft 136 kts 49°
2026-05-07 23:49 53.57781 9.88138 1771 ft 125 kts 51°
2026-05-07 23:49 53.58334 9.89346 1590 ft 134 kts 55°
2026-05-07 23:49 53.58899 9.90524 1380 ft 127 kts 52°
2026-05-07 23:49 53.59481 9.91667 1136 ft 127 kts 51°
2026-05-07 23:50 53.60044 9.92786 920 ft 127 kts 51°
2026-05-07 23:50 53.60519 9.93735 789 ft 90 kts 52°
2026-05-07 23:50 53.60939 9.94580 502 ft 91 kts 51°
2026-05-07 23:50 53.61333 9.95375 335 ft 90 kts 52°
2026-05-07 23:51 53.61717 9.96153 190 ft 90 kts 51°
2026-05-07 23:51 53.62072 9.96876 79 ft 72 kts 51°
2026-05-07 23:51 53.62344 9.97437 58 ft 49 kts 50°
2026-05-07 23:51 53.62528 9.97795 57 ft 34 kts 51°
2026-05-07 23:52 53.62662 9.98067 57 ft 26 kts 50°
2026-05-07 23:52 53.62752 9.98249 57 ft 0 kts 52°
2026-05-07 23:52 53.62754 9.98252 57 ft 2 kts 54°
2026-05-07 23:52 53.62754 9.98335 57 ft 9 kts 123°
2026-05-07 23:53 53.62705 9.98409 57 ft 9 kts 141°
2026-05-07 23:53 53.62670 9.98482 57 ft 7 kts 95°
2026-05-07 23:53 53.62686 9.98544 57 ft 5 kts 51°